When you browse on this site, cookies collect data to enhance your experience and personalize the content and advertising you see.
Visit our Privacy Policy to learn more. By continuing to use the site, you agree to this use of cookies and data.
  • In Netherlands
  • List of Countries
  • For 7 days
  • Water Temperature
  • Satellite Maps
  • Weather Map
  • Weather Widgets
  • user-avatar
    Login

    Hourly Weather Międzyrzec Podlaski

    Today, 26 June, Wednesday

    Time Temperature Precipitation Wind Pressure Humidity
    00:00 +20°C° 0 mm 2 mps 756 mmHg 88%
    01:00 +19°C° 0 mm 2 mps 756 mmHg 89%
    02:00 +19°C° 0 mm 3 mps 756 mmHg 86%
    03:00 +19°C° 0 mm 3 mps 755 mmHg 85%
    04:00 +19°C° 0 mm 3 mps 755 mmHg 83%
    05:00 +18°C° 0 mm 3 mps 755 mmHg 82%
    06:00 +20°C° 0 mm 3 mps 755 mmHg 80%
    07:00 +22°C° 0 mm 3 mps 754 mmHg 78%
    08:00 +25°C° 0 mm 3 mps 754 mmHg 76%
    09:00 +26°C° 0 mm 3 mps 754 mmHg 71%
    10:00 +28°C° 0 mm 3 mps 754 mmHg 67%
    11:00 +30°C° 0 mm 4 mps 754 mmHg 63%
    12:00 +32°C° 0.3 mm 4 mps 753 mmHg 62%
    13:00 +32°C° 0.3 mm 4 mps 753 mmHg 60%
    14:00 +33°C° 0.3 mm 4 mps 753 mmHg 59%
    15:00 +33°C° 0.1 mm 4 mps 752 mmHg 59%
    16:00 +33°C° 0.1 mm 4 mps 751 mmHg 58%
    17:00 +34°C° 0.1 mm 4 mps 750 mmHg 58%
    18:00 +31°C° 0.2 mm 3 mps 750 mmHg 63%
    19:00 +30°C° 0.2 mm 3 mps 750 mmHg 68%
    20:00 +28°C° 0.2 mm 3 mps 749 mmHg 74%
    21:00 +27°C° 0 mm 3 mps 749 mmHg 76%
    22:00 +26°C° 0 mm 3 mps 748 mmHg 79%
    23:00 +25°C° 0 mm 3 mps 748 mmHg 81%

    Tomorrow, 27 June, Thursday

    Time Temperature Precipitation Wind Pressure Humidity
    00:00 +24°C° 2.3 mm 3 mps 748 mmHg 85%
    01:00 +24°C° 2.3 mm 2 mps 747 mmHg 89%
    02:00 +23°C° 2.3 mm 2 mps 747 mmHg 93%
    03:00 +22°C° 0.1 mm 3 mps 747 mmHg 93%
    04:00 +22°C° 0.1 mm 4 mps 746 mmHg 94%
    05:00 +22°C° 0.1 mm 5 mps 746 mmHg 94%
    06:00 +21°C° 0 mm 6 mps 746 mmHg 90%
    07:00 +21°C° 0 mm 7 mps 746 mmHg 87%
    08:00 +21°C° 0 mm 8 mps 746 mmHg 83%
    09:00 +21°C° 0 mm 8 mps 746 mmHg 80%
    10:00 +21°C° 0 mm 8 mps 747 mmHg 77%
    11:00 +21°C° 0 mm 7 mps 747 mmHg 74%
    12:00 +21°C° 0.1 mm 8 mps 747 mmHg 72%
    13:00 +21°C° 0.1 mm 8 mps 747 mmHg 70%
    14:00 +21°C° 0.1 mm 8 mps 747 mmHg 68%
    15:00 +21°C° 0.1 mm 8 mps 747 mmHg 69%
    16:00 +21°C° 0.1 mm 8 mps 747 mmHg 70%
    17:00 +21°C° 0.1 mm 8 mps 747 mmHg 71%
    18:00 +20°C° 0.3 mm 8 mps 747 mmHg 76%
    19:00 +18°C° 0.3 mm 7 mps 747 mmHg 81%
    20:00 +17°C° 0.3 mm 6 mps 747 mmHg 86%
    21:00 +16°C° 0 mm 6 mps 747 mmHg 87%
    22:00 +15°C° 0 mm 5 mps 748 mmHg 87%
    23:00 +14°C° 0 mm 5 mps 748 mmHg 88%

    Day after tomorrow, 28 June, Friday

    Time Temperature Precipitation Wind Pressure Humidity
    00:00 +13°C° 0 mm 5 mps 748 mmHg 87%
    01:00 +12°C° 0 mm 5 mps 748 mmHg 87%
    02:00 +10°C° 0 mm 5 mps 749 mmHg 86%
    03:00 +10°C° 0 mm 5 mps 749 mmHg 86%
    04:00 +10°C° 0 mm 5 mps 749 mmHg 86%
    05:00 +9°C° 0 mm 5 mps 749 mmHg 86%
    06:00 +11°C° 0 mm 6 mps 749 mmHg 80%
    07:00 +14°C° 0 mm 7 mps 749 mmHg 75%
    08:00 +15°C° 0 mm 8 mps 749 mmHg 69%
    09:00 +16°C° 0.1 mm 8 mps 749 mmHg 66%
    10:00 +17°C° 0.1 mm 8 mps 749 mmHg 63%
    11:00 +18°C° 0.1 mm 8 mps 749 mmHg 60%
    12:00 +20°C° 0.1 mm 8 mps 749 mmHg 57%
    13:00 +20°C° 0.1 mm 8 mps 749 mmHg 55%
    14:00 +21°C° 0.1 mm 8 mps 749 mmHg 52%
    15:00 +21°C° 0 mm 8 mps 749 mmHg 52%
    16:00 +21°C° 0 mm 8 mps 749 mmHg 52%
    17:00 +20°C° 0 mm 8 mps 749 mmHg 52%
    18:00 +18°C° 0 mm 7 mps 749 mmHg 58%
    19:00 +17°C° 0 mm 6 mps 749 mmHg 64%
    20:00 +15°C° 0 mm 5 mps 749 mmHg 70%
    21:00 +14°C° 0 mm 4 mps 749 mmHg 72%
    22:00 +13°C° 0 mm 4 mps 750 mmHg 74%
    23:00 +12°C° 0 mm 4 mps 750 mmHg 76%

    29 June, Saturday

    Time Temperature Precipitation Wind Pressure Humidity
    00:00 +11°C° 0 mm 4 mps 750 mmHg 80%
    01:00 +11°C° 0 mm 4 mps 750 mmHg 83%
    02:00 +9°C° 0 mm 5 mps 750 mmHg 87%
    03:00 +10°C° 0 mm 4 mps 750 mmHg 88%
    04:00 +8°C° 0 mm 4 mps 751 mmHg 89%
    05:00 +8°C° 0 mm 4 mps 751 mmHg 91%
    06:00 +10°C° 0 mm 5 mps 751 mmHg 83%
    07:00 +12°C° 0 mm 5 mps 751 mmHg 75%
    08:00 +14°C° 0 mm 6 mps 751 mmHg 66%
    09:00 +15°C° 0 mm 6 mps 751 mmHg 63%
    10:00 +17°C° 0 mm 6 mps 751 mmHg 59%
    11:00 +19°C° 0 mm 6 mps 751 mmHg 56%
    12:00 +20°C° 0.1 mm 6 mps 751 mmHg 56%
    13:00 +20°C° 0.1 mm 6 mps 751 mmHg 56%
    14:00 +21°C° 0.1 mm 6 mps 750 mmHg 57%
    15:00 +21°C° 0.1 mm 6 mps 750 mmHg 57%
    16:00 +21°C° 0.1 mm 6 mps 750 mmHg 57%
    17:00 +22°C° 0.1 mm 6 mps 750 mmHg 58%
    18:00 +21°C° 0 mm 5 mps 750 mmHg 64%
    19:00 +20°C° 0 mm 3 mps 750 mmHg 71%
    20:00 +19°C° 0 mm 2 mps 750 mmHg 78%
    21:00 +18°C° 0 mm 2 mps 750 mmHg 82%
    22:00 +17°C° 0 mm 2 mps 750 mmHg 86%
    23:00 +16°C° 0 mm 3 mps 750 mmHg 89%

    30 June, Sunday

    Time Temperature Precipitation Wind Pressure Humidity
    00:00 +16°C° 0 mm 2 mps 750 mmHg 90%
    01:00 +15°C° 0 mm 2 mps 750 mmHg 91%
    02:00 +15°C° 0 mm 2 mps 750 mmHg 92%
    03:00 +15°C° 0 mm 2 mps 750 mmHg 92%
    04:00 +15°C° 0 mm 2 mps 750 mmHg 91%
    05:00 +14°C° 0 mm 2 mps 750 mmHg 91%
    06:00 +16°C° 0 mm 2 mps 750 mmHg 85%
    07:00 +18°C° 0 mm 2 mps 750 mmHg 79%
    08:00 +20°C° 0 mm 2 mps 751 mmHg 73%
    09:00 +22°C° 0 mm 3 mps 751 mmHg 67%
    10:00 +24°C° 0 mm 3 mps 751 mmHg 61%
    11:00 +26°C° 0 mm 3 mps 751 mmHg 55%
    12:00 +27°C° 0 mm 3 mps 751 mmHg 52%
    13:00 +28°C° 0 mm 3 mps 750 mmHg 50%
    14:00 +28°C° 0 mm 3 mps 750 mmHg 47%
    15:00 +29°C° 0 mm 3 mps 750 mmHg 48%
    16:00 +29°C° 0 mm 3 mps 750 mmHg 49%
    17:00 +29°C° 0 mm 3 mps 749 mmHg 50%
    18:00 +27°C° 0 mm 3 mps 749 mmHg 56%
    19:00 +26°C° 0 mm 3 mps 749 mmHg 63%
    20:00 +24°C° 0 mm 3 mps 748 mmHg 69%
    21:00 +22°C° 0 mm 3 mps 748 mmHg 70%
    22:00 +22°C° 0 mm 4 mps 748 mmHg 71%
    23:00 +21°C° 0 mm 4 mps 748 mmHg 72%

    1 July, Monday

    Time Temperature Precipitation Wind Pressure Humidity
    00:00 +20°C° 0 mm 4 mps 748 mmHg 72%
    01:00 +20°C° 0 mm 4 mps 748 mmHg 72%
    02:00 +19°C° 0 mm 5 mps 747 mmHg 72%
    03:00 +19°C° 0 mm 5 mps 747 mmHg 75%
    04:00 +19°C° 0 mm 5 mps 747 mmHg 79%
    05:00 +17°C° 0 mm 5 mps 746 mmHg 83%
    06:00 +20°C° 0 mm 5 mps 746 mmHg 80%
    07:00 +21°C° 0 mm 5 mps 746 mmHg 77%
    08:00 +23°C° 0 mm 5 mps 746 mmHg 75%
    09:00 +25°C° 0 mm 5 mps 746 mmHg 72%
    10:00 +27°C° 0 mm 5 mps 747 mmHg 69%
    11:00 +28°C° 0 mm 5 mps 747 mmHg 66%
    12:00 +28°C° 0.1 mm 5 mps 746 mmHg 62%
    13:00 +29°C° 0.1 mm 6 mps 746 mmHg 58%
    14:00 +29°C° 0.1 mm 6 mps 746 mmHg 54%
    15:00 +29°C° 0 mm 6 mps 746 mmHg 55%
    16:00 +29°C° 0 mm 5 mps 745 mmHg 55%
    17:00 +29°C° 0 mm 5 mps 745 mmHg 56%
    18:00 +27°C° 0.1 mm 4 mps 745 mmHg 61%
    19:00 +25°C° 0.1 mm 3 mps 745 mmHg 65%
    20:00 +24°C° 0.1 mm 2 mps 744 mmHg 70%
    21:00 +23°C° 0.3 mm 2 mps 744 mmHg 73%
    22:00 +21°C° 0.3 mm 2 mps 744 mmHg 75%
    23:00 +20°C° 0.3 mm 2 mps 744 mmHg 78%
    Show more